TimeCDT,TemperatureF,Dew PointF,Humidity,Sea Level PressureIn,VisibilityMPH,Wind Direction,Wind SpeedMPH,Gust SpeedMPH,PrecipitationIn,Events,Conditions,WindDirDegrees,DateUTC
12:53 AM,75.0,70.0,84,29.92,10.0,ESE,9.2,-,N/A,,Overcast,110,2012-05-05 05:53:00
1:53 AM,75.0,71.1,87,29.91,10.0,ESE,11.5,-,N/A,,Overcast,110,2012-05-05 06:53:00
2:48 AM,75.2,69.8,83,29.95,8.0,East,11.5,-,N/A,,Overcast,100,2012-05-05 07:48:00
2:53 AM,75.0,70.0,84,29.89,8.0,East,10.4,-,N/A,,Overcast,100,2012-05-05 07:53:00
3:53 AM,75.0,71.1,87,29.88,8.0,East,9.2,-,N/A,,Overcast,100,2012-05-05 08:53:00
4:53 AM,73.9,71.1,91,29.87,7.0,ESE,10.4,-,N/A,,Overcast,110,2012-05-05 09:53:00
5:53 AM,73.9,71.1,91,29.86,7.0,SE,9.2,-,N/A,,Overcast,130,2012-05-05 10:53:00
6:53 AM,73.9,72.0,93,29.86,6.0,SSE,9.2,-,N/A,,Overcast,160,2012-05-05 11:53:00
7:53 AM,75.0,72.0,90,29.87,5.0,SSE,8.1,-,N/A,,Overcast,150,2012-05-05 12:53:00
8:02 AM,75.2,71.6,89,29.92,8.0,South,8.1,-,N/A,,Mostly Cloudy,170,2012-05-05 13:02:00
8:53 AM,75.9,70.0,82,29.87,8.0,South,11.5,-,N/A,,Mostly Cloudy,170,2012-05-05 13:53:00
9:39 AM,77.0,69.8,78,29.93,8.0,South,8.1,18.4,N/A,,Mostly Cloudy,170,2012-05-05 14:39:00
9:53 AM,78.1,70.0,76,29.87,8.0,SSE,10.4,-,N/A,,Mostly Cloudy,150,2012-05-05 14:53:00
10:53 AM,81.0,71.1,72,29.86,10.0,SE,10.4,-,N/A,,Mostly Cloudy,140,2012-05-05 15:53:00
11:35 AM,82.4,71.6,70,29.89,10.0,SSE,9.2,-,N/A,,Mostly Cloudy,160,2012-05-05 16:35:00
11:53 AM,84.0,72.0,67,29.83,10.0,SSE,9.2,-,N/A,,Mostly Cloudy,150,2012-05-05 16:53:00
12:53 PM,87.1,73.0,63,29.81,10.0,SSE,6.9,-,N/A,,Mostly Cloudy,160,2012-05-05 17:53:00
1:53 PM,90.0,73.0,57,29.79,10.0,SSE,9.2,-,N/A,,Mostly Cloudy,160,2012-05-05 18:53:00
2:53 PM,93.0,73.0,52,29.78,10.0,SSE,9.2,18.4,N/A,,Mostly Cloudy,160,2012-05-05 19:53:00
3:53 PM,91.9,73.0,54,29.76,10.0,ESE,9.2,-,N/A,,Mostly Cloudy,110,2012-05-05 20:53:00
4:53 PM,91.9,72.0,52,29.75,10.0,SSE,10.4,-,N/A,,Mostly Cloudy,150,2012-05-05 21:53:00
5:53 PM,93.0,72.0,50,29.73,10.0,SSE,3.5,-,N/A,,Mostly Cloudy,160,2012-05-05 22:53:00
6:53 PM,93.0,71.1,49,29.72,10.0,SSE,10.4,-,N/A,,Mostly Cloudy,150,2012-05-05 23:53:00
7:53 PM,86.0,73.9,67,29.73,10.0,ESE,20.7,27.6,N/A,,Mostly Cloudy,120,2012-05-06 00:53:00
8:53 PM,82.9,75.0,77,29.77,10.0,ESE,12.7,-,N/A,,Mostly Cloudy,120,2012-05-06 01:53:00
9:53 PM,80.1,73.9,81,29.78,10.0,ESE,13.8,-,N/A,,Mostly Cloudy,120,2012-05-06 02:53:00
10:32 PM,80.6,73.4,79,29.86,10.0,ESE,11.5,-,N/A,,Mostly Cloudy,120,2012-05-06 03:32:00
10:53 PM,79.0,73.9,84,29.82,10.0,SE,13.8,-,N/A,,Overcast,130,2012-05-06 03:53:00
11:53 PM,78.1,73.0,84,29.84,10.0,ESE,10.4,-,N/A,,Overcast,120,2012-05-06 04:53:00